Location: Unspecified
(35.7250°N, 0.0000°E)
Time: 23:52:20
(UTC+00:00)

Vanguard 1 Rocket - Visible Passes

Search period start: 19 June 2019 00:00
Search period end: 29 June 2019 00:00
Orbit: 652 x 4224 km, 34.3° (Epoch: 18 June)

Date Brightness Start Highest point End Pass type
(mag) Time Alt. Az. Time Alt. Az. Time Alt. Az.
19 Jun 7.4 21:14:40 10° W 21:23:24 74° S 21:25:52 35° ESE visible
20 Jun 8.1 20:00:36 10° W 20:12:07 82° S 20:18:07 10° E visible
20 Jun 8.1 22:30:44 10° W 22:35:51 37° WSW 22:35:51 37° WSW visible
21 Jun 7.6 21:17:27 10° W 21:26:22 67° SSW 21:28:33 38° SE visible
22 Jun 8.1 20:03:16 10° W 20:15:06 81° S 20:21:13 10° E visible
22 Jun 8.5 22:33:44 10° W 22:38:31 30° WSW 22:38:31 30° WSW visible
23 Jun 7.7 21:20:13 10° W 21:29:14 57° SSW 21:31:12 39° SSE visible
24 Jun 8.2 20:05:57 10° W 20:18:03 76° SSW 20:23:54 12° ESE visible
24 Jun 8.9 22:36:52 10° W 22:41:10 23° WSW 22:41:10 23° WSW visible
25 Jun 8.0 21:23:01 10° W 21:32:01 47° SSW 21:33:52 37° SSE visible
26 Jun 8.3 20:08:36 10° W 20:20:56 69° SSW 20:26:33 14° ESE visible
26 Jun 9.3 22:40:18 10° W 22:43:50 17° WSW 22:43:50 17° WSW visible
27 Jun 8.3 21:25:52 10° W 21:34:39 38° SW 21:36:32 32° S visible
28 Jun 8.5 20:11:14 10° W 20:23:43 60° SSW 20:29:13 16° SE visible
28 Jun 9.6 22:44:24 10° WSW 22:46:30 13° WSW 22:46:30 13° WSW visible
